sat.trackr.live / text

‹ back to catalog

STARLINK-30763

NORAD 58163 · 2023-166P

PAYLOAD ACTIVE UNKNOWN

§ Identity

Operator
Country
US
Launch date
2023-10-29
Launch site
AFWTR
Launch vehicle
Mass (kg)
RCS (m²)

Purposes: comms

External: N2YO · Heavens-Above · Gunter

§ Orbital elements

Epoch: 2026-05-25T04:51:55.018368Z

Period
94.11 min
Inclination
53.1595°
Eccentricity
0.0000908
Mean motion
15.30201401 rev/d
Perigee alt
474.6 km
Apogee alt
475.8 km
Semi-major
6,853.3 km
B*
4.6605e-5
RAAN
211.6445°
Arg perigee
84.4042°
Mean anomaly
275.7063°
Rev number
14,506

§ Raw data

STARLINK-307631 58163U 23166P   26145.20272012  .00001022  00000+0  46605-4 0  99942 58163  53.1595 211.6445 0000908  84.4042 275.7063 15.30201401145068

JSON: /api/v1/satellites/58163 · /tle

For live sub-satellite position, see the globe view (requires WebGL).

§ Visibility from observer

Set your observer location to see the next 7 days of passes ≥ 10°. The values pass through the URL so the page stays shareable.

No JS? Fill the form by hand. The geolocation button needs JavaScript.